Weather History for Sarasota, FL

Change the Weather History Date:

Saturday, August 17, 2013

  Actual Average Record
Temperature  
Mean Temperature 84 °F 82 °F  
Max Temperature 92 °F 90 °F 97 °F (1973)
Min Temperature 75 °F 74 °F 67 °F (1927)
Degree Days  
Heating Degree Days 0 0  
Month to date heating degree days 0 0  
Since 1 June heating degree days 0 0  
Since 1 July heating degree days 0 0  
Cooling Degree Days 19 17  
Month to date cooling degree days 322 289  
Year to date cooling degree days 2252 2051  
Since 1 June cooling degree days 1384 1300  
Growing Degree Days 33 (Base 50)    
Moisture  
Dew Point 74 °F    
Average Humidity 80    
Maximum Humidity 94    
Minimum Humidity 56    
Precipitation  
Precipitation 0.31 in 0.31 in 4.00 in (1922)
Month to date precipitation 3.45 4.95  
Year to date precipitation 30.74 34.14  
Sea Level Pressure  
Sea Level Pressure 30.02 in    
Wind  
Wind Speed 5 mph (SE)    
Max Wind Speed 23 mph    
Max Gust Speed 29 mph    
Visibility 9 miles    
Events Rain , Thunderstorm    
T = Trace of Precipitation, MM = Missing Value Source: NWS Daily Summary

Daily Weather History Graph

Daily Weather History Graph

Search for Another Location

Airport:

Trip Planner

Search our weather history database for the weather conditions in past years. The results will help you decide how hot, cold, wet, or windy it might be!

Date:

Astronomy

Aug. 17, 2013 Rise Set
Actual Time 7:02 AM EDT 8:05 PM EDT
Civil Twilight 6:37 AM EDT 8:30 PM EDT
Nautical Twilight 6:09 AM EDT 8:58 PM EDT
Astronomical Twilight 5:39 AM EDT 9:28 PM EDT
Moon 5:11 PM EDT 3:14 AM EDT
Length of Visible Light 13h 52m
Length of Day
13h 03m
Waxing Gibbous, 84% of the Moon is Illuminated
Aug 17
Waxing Gibbous
Aug 20
Full
Aug 28
Last Quarter
Sep 5
New
Sep 12
First Quarter

Hourly Weather History & Observations

Time (EDT) Temp. Heat Index Dew Point Humidity Pressure Visibility Wind Dir Wind Speed Gust Speed Precip Events Conditions
12:06 AM 78.8 °F - 69.8 °F 74% 30.05 in 1.8 mi SSW 12.7 mph 39.1 mph 0.20 in Rain , Thunderstorm Heavy Thunderstorms and Rain
12:13 AM 78.8 °F - 69.8 °F 74% 30.04 in 3.0 mi SW 9.2 mph 23.0 mph 0.21 in Rain , Thunderstorm Light Thunderstorms and Rain
12:39 AM 78.8 °F - 75.2 °F 89% 30.04 in 7.0 mi SSW 8.1 mph - 0.32 in Rain , Thunderstorm Light Rain
12:53 AM 77.0 °F - 73.9 °F 90% 30.04 in 10.0 mi East 10.4 mph - 0.32 in Rain , Thunderstorm Light Rain
1:19 AM 77.0 °F - 75.2 °F 94% 30.03 in 10.0 mi SW 3.5 mph - 0.00 in   Partly Cloudy
1:53 AM 77.0 °F - 73.9 °F 90% 30.03 in 10.0 mi ESE 3.5 mph - 0.00 in   Clear
2:53 AM 77.0 °F - 73.9 °F 90% 30.01 in 10.0 mi NNE 3.5 mph - N/A   Clear
3:53 AM 77.0 °F - 75.0 °F 94% 30.00 in 10.0 mi ENE 4.6 mph - N/A   Scattered Clouds
4:53 AM 75.0 °F - 73.0 °F 94% 29.99 in 10.0 mi ENE 4.6 mph - N/A   Clear
5:53 AM 75.0 °F - 73.0 °F 94% 30.00 in 10.0 mi ESE 4.6 mph - N/A   Partly Cloudy
6:53 AM 75.9 °F - 73.9 °F 94% 30.01 in 10.0 mi East 4.6 mph - N/A   Clear
7:53 AM 77.0 °F - 73.9 °F 90% 30.02 in 10.0 mi East 6.9 mph - 0.00 in Rain Light Rain
8:53 AM 79.0 °F - 75.9 °F 90% 30.03 in 10.0 mi ESE 6.9 mph - 0.00 in Rain Light Rain
9:53 AM 81.0 °F 88.6 °F 78.1 °F 91% 30.03 in 10.0 mi ESE 6.9 mph - 0.00 in   Partly Cloudy
10:53 AM 84.0 °F 94.8 °F 78.1 °F 82% 30.04 in 10.0 mi SE 8.1 mph - 0.00 in   Clear
11:53 AM 89.1 °F 100.2 °F 75.9 °F 65% 30.04 in 10.0 mi SSE 13.8 mph - N/A   Clear
12:53 PM 91.9 °F 101.3 °F 73.9 °F 55% 30.03 in 10.0 mi SE 9.2 mph - N/A   Partly Cloudy
1:53 PM 88.0 °F 101.3 °F 78.1 °F 72% 30.02 in 7.0 mi SW 6.9 mph - 0.00 in Rain Light Rain
2:50 PM 89.6 °F 102.2 °F 77.0 °F 66% 29.99 in 10.0 mi SW 9.2 mph - 0.03 in Thunderstorm Clear
2:53 PM 91.0 °F 104.2 °F 77.0 °F 63% 29.99 in 10.0 mi WSW 11.5 mph - 0.03 in Thunderstorm Clear
3:35 PM 82.4 °F 86.3 °F 69.8 °F 66% 30.00 in 10.0 mi East 12.7 mph 27.6 mph N/A Thunderstorm Thunderstorm
3:53 PM 84.0 °F 89.0 °F 71.1 °F 65% 30.00 in 10.0 mi East 5.8 mph - N/A Thunderstorm Thunderstorm
4:08 PM 86.0 °F 91.8 °F 71.6 °F 62% 29.98 in 10.0 mi SE 3.5 mph - N/A   Clear
4:53 PM 90.0 °F 95.4 °F 70.0 °F 52% 29.99 in 10.0 mi Variable 3.5 mph - N/A   Clear
5:53 PM 86.0 °F 92.2 °F 72.0 °F 63% 29.99 in 10.0 mi SE 4.6 mph - N/A   Clear
6:53 PM 87.1 °F 95.4 °F 73.9 °F 65% 29.99 in 10.0 mi Calm Calm - N/A   Clear
7:53 PM 78.1 °F - 73.0 °F 84% 30.06 in 1.8 mi SSW 8.1 mph - 0.12 in Rain , Thunderstorm Heavy Thunderstorms and Rain
8:09 PM 77.0 °F - 71.6 °F 83% 30.04 in 3.0 mi SE 4.6 mph - 0.16 in Rain , Thunderstorm Light Thunderstorms and Rain
8:44 PM 77.0 °F - 73.4 °F 89% 30.05 in 10.0 mi North 4.6 mph - 0.16 in   Partly Cloudy
8:53 PM 77.0 °F - 73.9 °F 90% 30.05 in 10.0 mi Calm Calm - 0.16 in   Clear
9:53 PM 78.1 °F - 73.9 °F 87% 30.06 in 10.0 mi Calm Calm - N/A   Clear
10:53 PM 78.1 °F - 73.9 °F 87% 30.05 in 10.0 mi Calm Calm - N/A   Clear
11:53 PM 77.0 °F - 73.0 °F 88% 30.07 in 10.0 mi ENE 3.5 mph - N/A   Clear